W2DEN Weather Reports


Display with metric or nautical units.
time (UTC)temp
F
wind
direction
speed
MPH
gust
MPH
rain 1hr
in
rain 24hr
in
rain mn
in
humidity
%
barometer
mb
20260902054518 74 0.0 0.0 0.00 0.00 0.00 95 1017.4
20260902053538 75 0.0 0.0 0.00 0.00 0.00 95 1017.3
20260902052517 75 0.0 0.0 0.00 0.00 0.00 95 1017.4
20260902051538 75 0.0 0.0 0.00 0.00 0.00 94 1017.3
20260902050517 75 0.0 0.0 0.00 0.00 0.00 94 1017.3
20260902045517 75 0.0 0.0 0.00 0.00 0.00 94 1017.3
20260902044517 75 0.0 0.0 0.00 0.00 0.00 94 1017.4
20260902043557 75 0.0 0.0 0.00 0.00 0.00 94 1017.5
20260902042517 76 0.0 0.0 0.00 0.00 0.00 94 1017.6
20260902041517 76 0.0 0.0 0.00 0.00 0.00 94 1017.5
20260902040517 76 0.0 0.0 0.00 0.00 0.00 94 1017.6
20260902035518 76 0.0 0.0 0.00 0.00 0.00 94 1017.6
20260902034538 76 0.0 0.0 0.00 0.00 0.00 93 1017.6
20260902033519 76 0.0 0.0 0.00 0.00 0.00 93 1017.6
20260902032538 76 0.0 0.0 0.00 0.00 0.00 93 1017.7
20260902031517 76 0.0 0.0 0.00 0.00 0.00 93 1017.8
20260902030518 76 0.0 0.0 0.00 0.00 0.00 92 1017.8
20260902025517 77 0.0 0.0 0.00 0.00 0.00 92 1017.8
20260902024518 77 0.0 0.0 0.00 0.00 0.00 92 1017.8
20260902023538 77 0.0 0.0 0.00 0.00 0.00 91 1017.9
20260902022517 77 0.0 0.0 0.00 0.00 0.00 90 1017.8
20260902021518 77 0.0 0.0 0.00 0.00 0.00 90 1017.8
20260902020516 78 0.0 0.0 0.00 0.00 0.00 89 1017.8
20260902015516 78 0.0 0.0 0.00 0.00 0.00 89 1017.5
20260902014517 78 0.0 0.0 0.00 0.00 0.00 88 1017.5
20260902013517 79 0.0 0.0 0.00 0.00 0.00 87 1017.5
20260902012517 79 0.0 0.0 0.00 0.00 0.00 85 1017.4
20260902011536 80 0.0 0.0 0.00 0.00 0.00 85 1017.2
20260902010537 80 0.0 0.0 0.00 0.00 0.00 85 1017.0
20260902005517 80 0.0 0.0 0.00 0.00 0.00 84 1016.9
20260902004517 81 0.0 0.0 0.00 0.00 0.00 83 1016.8
20260902003517 81 0.0 0.0 0.00 0.00 0.00 83 1016.8
20260902002516 82 0.0 0.0 0.00 0.00 0.00 82 1016.7
20260902001557 82 0.0 0.0 0.00 0.00 0.00 80 1016.7
20260902000517 83 0.0 0.0 0.00 0.00 0.00 79 1016.7
20260901235516 84 0.0 0.0 0.00 0.00 0.00 77 1016.7
20260901234537 84 0.0 0.0 0.00 0.00 0.00 76 1016.7
20260901233518 85 0.0 0.0 0.00 0.00 0.00 75 1016.7
20260901232516 86 0.0 1.0 0.00 0.00 0.00 74 1016.6
20260901231538 87 0.0 2.0 0.00 0.00 0.00 72 1016.7
20260901230516 88 0.0 1.0 0.00 0.00 0.00 71 1016.6
20260901225528 88 0.0 1.0 0.00 0.00 0.00 66 1016.5
20260901224516 89 0.0 0.0 0.00 0.00 0.00 65 1016.5
20260901223516 90 0.0 0.0 0.00 0.00 0.00 65 1016.5
20260901222516 90 135 1.0 1.0 0.00 0.00 0.00 63 1016.4
20260901221516 91 0.0 1.0 0.00 0.00 0.00 64 1016.5
20260901220516 91 0.0 2.0 0.00 0.00 0.00 62 1016.3
20260901215516 92 23 1.0 1.0 0.00 0.00 0.00 59 1016.4
20260901214657 92 0.0 0.0 0.00 0.00 0.00 59 1016.4
20260901213517 93 248 1.0 2.0 0.00 0.00 0.00 56 1016.3
20260901212516 93 0.0 1.0 0.00 0.00 0.00 55 1016.6
20260901211517 94 158 1.0 2.0 0.00 0.00 0.00 56 1016.6
20260901210516 94 135 1.0 2.0 0.00 0.00 0.00 54 1016.7
20260901205517 94 0.0 1.0 0.00 0.00 0.00 58 1016.6
20260901204516 94 0.0 1.0 0.00 0.00 0.00 56 1016.5
20260901203559 94 23 2.0 3.0 0.00 0.00 0.00 56 1016.6
20260901202518 94 0 1.0 2.0 0.00 0.00 0.00 55 1016.5
20260901201537 93 315 1.0 1.0 0.00 0.00 0.00 56 1016.6
20260901200518 95 0 2.0 2.0 0.00 0.00 0.00 53 1016.6
20260901195518 94 0.0 1.0 0.00 0.00 0.00 56 1016.6
20260901194518 93 135 1.0 2.0 0.00 0.00 0.00 55 1016.7
20260901193516 94 0 2.0 3.0 0.00 0.00 0.00 57 1016.7
20260901192518 94 0.0 1.0 0.00 0.00 0.00 56 1016.7
20260901191537 92 338 1.0 2.0 0.00 0.00 0.00 59 1016.9
20260901190517 93 23 2.0 2.0 0.00 0.00 0.00 55 1017.1
20260901185537 92 0 2.0 3.0 0.00 0.00 0.00 57 1017.4
20260901184516 90 0.0 0.0 0.00 0.00 0.00 63 1017.6
20260901183517 92 0.0 0.0 0.00 0.00 0.00 60 1017.6
20260901182517 94 0.0 0.0 0.00 0.00 0.00 55 1017.7
20260901181619 94 0.0 0.0 0.00 0.00 0.00 59 1017.9
20260901181018 93 0.0 2.0 0.00 0.00 0.00 57 1017.8
20260901180017 91 23 1.0 2.0 0.00 0.00 0.00 62 1018.0
20260901175016 91 0 2.0 4.0 0.00 0.00 0.00 62 1018.1
20260901174018 92 68 1.0 2.0 0.00 0.00 0.00 60 1018.2
20260901173017 91 0 1.0 2.0 0.00 0.00 0.00 62 1018.2
20260901172017 91 23 2.0 2.0 0.00 0.00 0.00 61 1018.3
20260901171017 90 270 2.0 2.0 0.00 0.00 0.00 63 1018.2
20260901170016 91 248 1.0 2.0 0.00 0.00 0.00 63 1018.4
20260901165017 91 23 3.0 5.0 0.00 0.00 0.00 63 1018.5
20260901164016 91 23 1.0 2.0 0.00 0.00 0.00 63 1018.6
20260901163017 90 23 2.0 2.0 0.00 0.00 0.00 65 1018.8
20260901162016 91 23 1.0 2.0 0.00 0.00 0.00 64 1018.8
20260901161016 91 90 1.0 2.0 0.00 0.00 0.00 64 1018.9
20260901160016 90 23 1.0 3.0 0.00 0.00 0.00 65 1018.9
20260901155017 89 23 1.0 2.0 0.00 0.00 0.00 67 1019.0
20260901154016 89 0.0 1.0 0.00 0.00 0.00 69 1019.2
20260901153016 88 23 2.0 3.0 0.00 0.00 0.00 68 1019.4
20260901152016 88 0 2.0 3.0 0.00 0.00 0.00 69 1019.3
20260901151016 88 68 1.0 2.0 0.00 0.00 0.00 71 1019.2
20260901150017 87 338 2.0 5.0 0.00 0.00 0.00 70 1019.3
20260901145016 86 23 2.0 3.0 0.00 0.00 0.00 70 1019.3
20260901144016 86 23 1.0 2.0 0.00 0.00 0.00 73 1019.2
20260901143036 86 23 1.0 2.0 0.00 0.00 0.00 77 1019.1
20260901142016 85 45 1.0 2.0 0.00 0.00 0.00 79 1019.1
20260901141016 84 0.0 1.0 0.00 0.00 0.00 81 1019.2
20260901140016 83 0.0 1.0 0.00 0.00 0.00 84 1019.2
20260901135016 83 0 1.0 2.0 0.00 0.00 0.00 85 1019.2
20260901134016 81 0 1.0 2.0 0.00 0.00 0.00 87 1019.1
20260901133016 80 0.0 0.0 0.00 0.00 0.00 88 1019.2
20260901132018 80 0.0 1.0 0.00 0.00 0.00 89 1019.1
20260901131016 79 0.0 1.0 0.00 0.00 0.00 92 1019.1
20260901130017 78 0 1.0 2.0 0.00 0.00 0.00 94 1019.0
20260901125017 76 0.0 1.0 0.00 0.00 0.00 96 1019.1
20260901124017 76 0.0 1.0 0.00 0.00 0.00 97 1019.1
20260901123016 75 68 1.0 3.0 0.00 0.00 0.00 97 1018.9
20260901122016 74 0.0 1.0 0.00 0.00 0.00 97 1018.8
20260901121016 74 0.0 0.0 0.00 0.00 0.00 97 1018.9
20260901120017 73 0.0 0.0 0.00 0.00 0.00 97 1018.8
20260901115017 72 0.0 0.0 0.00 0.00 0.00 97 1018.7
20260901114016 72 0.0 0.0 0.00 0.00 0.00 96 1018.6
20260901113036 71 0.0 0.0 0.00 0.00 0.00 96 1018.3
20260901112036 71 0.0 0.0 0.00 0.00 0.00 96 1018.3
20260901111016 71 0.0 0.0 0.00 0.00 0.00 96 1018.1
20260901110016 71 0.0 0.0 0.00 0.00 0.00 96 1017.9
20260901105016 71 0.0 0.0 0.00 0.00 0.00 96 1017.8
20260901104016 71 0.0 0.0 0.00 0.00 0.00 96 1017.7
20260901103016 71 0.0 0.0 0.00 0.00 0.00 96 1017.6
20260901102016 71 0.0 0.0 0.00 0.00 0.00 96 1017.6
20260901101016 71 0.0 0.0 0.00 0.00 0.00 96 1017.6
20260901100016 71 0.0 0.0 0.00 0.00 0.00 96 1017.6
20260901095017 71 0.0 0.0 0.00 0.00 0.00 96 1017.6
20260901094016 71 0.0 0.0 0.00 0.00 0.00 96 1017.4
20260901093016 71 0.0 0.0 0.00 0.00 0.00 96 1017.4
20260901092016 71 0.0 0.0 0.00 0.00 0.00 96 1017.5
20260901091015 71 0.0 0.0 0.00 0.00 0.00 96 1017.4
20260901090016 71 0.0 0.0 0.00 0.00 0.00 96 1017.4
20260901085016 71 0.0 0.0 0.00 0.00 0.00 96 1017.4
20260901084016 71 0.0 0.0 0.00 0.00 0.00 96 1017.4
20260901083016 71 0.0 0.0 0.00 0.00 0.00 96 1017.5
20260901082016 71 0.0 0.0 0.00 0.00 0.00 96 1017.6
20260901080016 72 0.0 0.0 0.00 0.00 0.00 96 1017.5
20260901075016 72 0.0 0.0 0.00 0.00 0.00 96 1017.6
20260901074037 72 0.0 0.0 0.00 0.00 0.00 96 1017.6
20260901073016 72 0.0 0.0 0.00 0.00 0.00 96 1017.6
20260901072017 72 0.0 0.0 0.00 0.00 0.00 96 1017.6
20260901071016 72 0.0 0.0 0.00 0.00 0.00 96 1017.7
20260901070018 72 0.0 0.0 0.00 0.00 0.00 96 1017.7
20260901065018 72 0.0 0.0 0.00 0.00 0.00 96 1017.9
20260901064038 73 0.0 0.0 0.00 0.00 0.00 96 1017.9
20260901063018 73 0.0 0.0 0.00 0.00 0.00 95 1017.9
20260901062018 73 0.0 0.0 0.00 0.00 0.00 96 1018.0
20260901061018 73 0.0 0.0 0.00 0.00 0.00 95 1018.1
20260901060018 73 0.0 0.0 0.00 0.00 0.00 95 1018.1